Погода в Овадном

Украина / Волынская область     50°55′32″N   24°23′33″E
темп.,
°C
ветер,
м/с
пор.,
м/с
влажн.,
%
обл.,
%
осадки,
мм/ч
давл.,
гПа
погр.,
м
28 февраля, вс
вс2823:00+2сз71282100 0.1 1029574
02:000сз6119181 0.1 1030365
05:00−1сз5109424 0.0 1030356
08:000зсз5108855 0.0 1031398
11:00+3сз696871 0.0 1029665
14:00+6зсз7106072 0.0 1028850
17:00+5зсз61270100 0.0 1026902
20:00+4сз81384100 0.0 1026754
1 марта, пн
пн123:00+2сз61097100 0.3 1026538
02:00+3с4897100 1.3 1029428
05:00+2ссз479589 0.4 1030330
08:00+2ссз359493 0.4 1032313
11:00+4ссз347996 0.0 1033589
14:00+5зсз447291 0.1 1033789
17:00+5з4576100 0.0 1033672
20:00+2з359164 0.0 1033103
2 марта, вт
вт223:00+2зюз489257 0.0 1033182
02:00+1зюз599440 0.0 1033186
05:00+1з5119277 0.0 1031284
08:00+1з6139270 0.0 1031366
11:00+5сз697620 0.0 1031599
14:00+8сз576711 0.0 1031679
17:00+7зсз47700 0.0 1030543
20:00+4зсз36860 0.0 103199
3 марта, ср
ср323:00+2з34900 0.0 103166
02:00+1з34920 0.0 103181
05:00+1з36950 0.0 1030106
08:00+1зсз36971 0.0 1030165
11:00+6сз347619 0.0 1031496
14:00+7зсз336936 0.0 1030736
17:00+6зсз337357 0.0 1028694
20:00+3юв118636 0.0 102822
4 марта, чт
чт423:00+2ю339025 0.0 102740
02:00+2ююз348952 0.0 102554
05:00+1юз448913 0.0 102384
08:00+2юз510917 0.0 1021214
11:00+7зюз6107171 0.0 1019612
14:00+10зюз796157 0.0 10171096
17:00+9з496567 0.0 1015801
20:00+6зюз4107980 0.0 1014232